����������;��������(kWh)
2018-08-13 00:00;75,3
2018-08-13 00:15;73,75
2018-08-13 00:30;73,6
2018-08-13 00:45;76,25
2018-08-13 01:00;73,05
2018-08-13 01:15;72,85
2018-08-13 01:30;73,45
2018-08-13 01:45;72
2018-08-13 02:00;72,25
2018-08-13 02:15;74,7
2018-08-13 02:30;72,4
2018-08-13 02:45;71,75
2018-08-13 03:00;74,05
2018-08-13 03:15;72,4
2018-08-13 03:30;72,7
2018-08-13 03:45;75,1
2018-08-13 04:00;73,3
2018-08-13 04:15;73
2018-08-13 04:30;76,25
2018-08-13 04:45;73,7
2018-08-13 05:00;75,75
2018-08-13 05:15;76,7
2018-08-13 05:30;74,15
2018-08-13 05:45;75,2
2018-08-13 06:00;74,7
2018-08-13 06:15;70,7
2018-08-13 06:30;71
2018-08-13 06:45;70,5
2018-08-13 07:00;66,35
2018-08-13 07:15;66
2018-08-13 07:30;64,7
2018-08-13 07:45;64,75
2018-08-13 08:00;65,05
2018-08-13 08:15;65,9
2018-08-13 08:30;65,55
2018-08-13 08:45;66,85
2018-08-13 09:00;69,45
2018-08-13 09:15;70,55
2018-08-13 09:30;72,35
2018-08-13 09:45;74,15
2018-08-13 10:00;74,6
2018-08-13 10:15;73,15
2018-08-13 10:30;73,8
2018-08-13 10:45;73,85
2018-08-13 11:00;76,85
2018-08-13 11:15;75,05
2018-08-13 11:30;77,05
2018-08-13 11:45;75,4
2018-08-13 12:00;77,75
2018-08-13 12:15;81,15
2018-08-13 12:30;79,5
2018-08-13 12:45;80,55
2018-08-13 13:00;77,7
2018-08-13 13:15;79
2018-08-13 13:30;65,3
2018-08-13 13:45;8,3
2018-08-13 14:00;2,2
2018-08-13 14:15;0
2018-08-13 14:30;0
2018-08-13 14:45;0
2018-08-13 15:00;0
2018-08-13 15:15;0
2018-08-13 15:30;0
2018-08-13 15:45;0
2018-08-13 16:00;0
2018-08-13 16:15;0
2018-08-13 16:30;0
2018-08-13 16:45;0
2018-08-13 17:00;0
2018-08-13 17:15;0
2018-08-13 17:30;0
2018-08-13 17:45;53,85
2018-08-13 18:00;72,75
2018-08-13 18:15;70,9
2018-08-13 18:30;71,9
2018-08-13 18:45;73,35
2018-08-13 19:00;72,25
2018-08-13 19:15;72,25
2018-08-13 19:30;71,25
2018-08-13 19:45;73,7
2018-08-13 20:00;72,95
2018-08-13 20:15;72,5
2018-08-13 20:30;74,55
2018-08-13 20:45;76,65
2018-08-13 21:00;77,1
2018-08-13 21:15;74,15
2018-08-13 21:30;74,9
2018-08-13 21:45;74,65
2018-08-13 22:00;72,65
2018-08-13 22:15;72,9
2018-08-13 22:30;70,7
2018-08-13 22:45;69,65
2018-08-13 23:00;75,3
2018-08-13 23:15;72,95
2018-08-13 23:30;75,95
2018-08-13 23:45;78,9
2018-08-14 00:00;69,4
2018-08-14 00:15;72,1
2018-08-14 00:30;70,05
2018-08-14 00:45;68,9
2018-08-14 01:00;71,7
2018-08-14 01:15;69,1
2018-08-14 01:30;70,05
2018-08-14 01:45;70,85
2018-08-14 02:00;69,3
2018-08-14 02:15;69,7
2018-08-14 02:30;69,25
2018-08-14 02:45;69,35
2018-08-14 03:00;69,8
2018-08-14 03:15;69,15
2018-08-14 03:30;69,7
2018-08-14 03:45;71,65
2018-08-14 04:00;70,1
2018-08-14 04:15;69,75
2018-08-14 04:30;72,2
2018-08-14 04:45;69,5
2018-08-14 05:00;70,2
2018-08-14 05:15;71,55
2018-08-14 05:30;70,6
2018-08-14 05:45;71,15
2018-08-14 06:00;70,95
2018-08-14 06:15;68,4
2018-08-14 06:30;67,2
2018-08-14 06:45;65,95
2018-08-14 07:00;63,35
2018-08-14 07:15;62,5
2018-08-14 07:30;61,85
2018-08-14 07:45;59,85
2018-08-14 08:00;59,8
2018-08-14 08:15;61,3
2018-08-14 08:30;60,05
2018-08-14 08:45;64,35
2018-08-14 09:00;63,7
2018-08-14 09:15;63,15
2018-08-14 09:30;66,15
2018-08-14 09:45;65,15
2018-08-14 10:00;66,75
2018-08-14 10:15;66,5
2018-08-14 10:30;68,3
2018-08-14 10:45;67,95
2018-08-14 11:00;68,15
2018-08-14 11:15;68,7
2018-08-14 11:30;71,2
2018-08-14 11:45;69,85
2018-08-14 12:00;72,85
2018-08-14 12:15;73
2018-08-14 12:30;72,75
2018-08-14 12:45;70,25
2018-08-14 13:00;72,55
2018-08-14 13:15;71,7
2018-08-14 13:30;71,55
2018-08-14 13:45;72,9
2018-08-14 14:00;72,8
2018-08-14 14:15;72,45
2018-08-14 14:30;68,55
2018-08-14 14:45;70,9
2018-08-14 15:00;68,15
2018-08-14 15:15;72,25
2018-08-14 15:30;69,75
2018-08-14 15:45;72,65
2018-08-14 16:00;72
2018-08-14 16:15;71,35
2018-08-14 16:30;72,4
2018-08-14 16:45;69,75
2018-08-14 17:00;71,2
2018-08-14 17:15;69,5
2018-08-14 17:30;70,25
2018-08-14 17:45;69,6
2018-08-14 18:00;71,25
2018-08-14 18:15;69,55
2018-08-14 18:30;69,9
2018-08-14 18:45;67,8
2018-08-14 19:00;69,5
2018-08-14 19:15;69,75
2018-08-14 19:30;70,4
2018-08-14 19:45;74,95
2018-08-14 20:00;73
2018-08-14 20:15;73,5
2018-08-14 20:30;75,45
2018-08-14 20:45;78,1
2018-08-14 21:00;77,5
2018-08-14 21:15;76,05
2018-08-14 21:30;76,3
2018-08-14 21:45;75,55
2018-08-14 22:00;74,6
2018-08-14 22:15;73,8
2018-08-14 22:30;72,5
2018-08-14 22:45;72
2018-08-14 23:00;77,9
2018-08-14 23:15;72,7
2018-08-14 23:30;76,3
2018-08-14 23:45;79,2
2018-08-15 00:00;70,6
2018-08-15 00:15;72,4
2018-08-15 00:30;71
2018-08-15 00:45;72,05
2018-08-15 01:00;72,6
2018-08-15 01:15;69,65
2018-08-15 01:30;69,9
2018-08-15 01:45;68,95
2018-08-15 02:00;69,2
2018-08-15 02:15;70,2
2018-08-15 02:30;68,35
2018-08-15 02:45;69,95
2018-08-15 03:00;68,05
2018-08-15 03:15;69,25
2018-08-15 03:30;70,55
2018-08-15 03:45;71,1
2018-08-15 04:00;72,4
2018-08-15 04:15;71
2018-08-15 04:30;71
2018-08-15 04:45;72,2
2018-08-15 05:00;70,55
2018-08-15 05:15;71,1
2018-08-15 05:30;70,45
2018-08-15 05:45;72,35
2018-08-15 06:00;70,45
2018-08-15 06:15;68,1
2018-08-15 06:30;69,05
2018-08-15 06:45;65,8
2018-08-15 07:00;63,7
2018-08-15 07:15;62,45
2018-08-15 07:30;60,95
2018-08-15 07:45;60,45
2018-08-15 08:00;61,95
2018-08-15 08:15;60,8
2018-08-15 08:30;61,45
2018-08-15 08:45;63,9
2018-08-15 09:00;63,25
2018-08-15 09:15;65,65
2018-08-15 09:30;64,65
2018-08-15 09:45;65,95
2018-08-15 10:00;63,45
2018-08-15 10:15;66,15
2018-08-15 10:30;63,9
2018-08-15 10:45;64,8
2018-08-15 11:00;62,9
2018-08-15 11:15;63,6
2018-08-15 11:30;62,4
2018-08-15 11:45;63,1
2018-08-15 12:00;64,25
2018-08-15 12:15;64,1
2018-08-15 12:30;65,45
2018-08-15 12:45;64,95
2018-08-15 13:00;65,75
2018-08-15 13:15;65,3
2018-08-15 13:30;64,25
2018-08-15 13:45;65,65
2018-08-15 14:00;64,35
2018-08-15 14:15;68,9
2018-08-15 14:30;67,9
2018-08-15 14:45;68,4
2018-08-15 15:00;68,55
2018-08-15 15:15;70,4
2018-08-15 15:30;69,3
2018-08-15 15:45;70,5
2018-08-15 16:00;69,3
2018-08-15 16:15;70,3
2018-08-15 16:30;69,4
2018-08-15 16:45;68,2
2018-08-15 17:00;68,5
2018-08-15 17:15;67,2
2018-08-15 17:30;70,2
2018-08-15 17:45;69,6
2018-08-15 18:00;70,3
2018-08-15 18:15;70,6
2018-08-15 18:30;70,45
2018-08-15 18:45;71,4
2018-08-15 19:00;68,7
2018-08-15 19:15;71,4
2018-08-15 19:30;72
2018-08-15 19:45;76,25
2018-08-15 20:00;74,35
2018-08-15 20:15;75,45
2018-08-15 20:30;79,05
2018-08-15 20:45;80
2018-08-15 21:00;81,55
2018-08-15 21:15;78,3
2018-08-15 21:30;79,3
2018-08-15 21:45;78,8
2018-08-15 22:00;78,4
2018-08-15 22:15;76,9
2018-08-15 22:30;71,2
2018-08-15 22:45;73,15
2018-08-15 23:00;77
2018-08-15 23:15;73,9
2018-08-15 23:30;77,75
2018-08-15 23:45;79,7
2018-08-16 00:00;71,4
2018-08-16 00:15;70,2
2018-08-16 00:30;70,25
2018-08-16 00:45;71,6
2018-08-16 01:00;70,85
2018-08-16 01:15;69,6
2018-08-16 01:30;70,3
2018-08-16 01:45;69,5
2018-08-16 02:00;70,2
2018-08-16 02:15;69,95
2018-08-16 02:30;69,75
2018-08-16 02:45;70,35
2018-08-16 03:00;69,45
2018-08-16 03:15;69,25
2018-08-16 03:30;70,85
2018-08-16 03:45;70,8
2018-08-16 04:00;70,35
2018-08-16 04:15;71,45
2018-08-16 04:30;70,95
2018-08-16 04:45;71,05
2018-08-16 05:00;70,45
2018-08-16 05:15;70,35
2018-08-16 05:30;70,5
2018-08-16 05:45;71,7
2018-08-16 06:00;70,3
2018-08-16 06:15;69
2018-08-16 06:30;68,25
2018-08-16 06:45;65,55
2018-08-16 07:00;64,65
2018-08-16 07:15;61,35
2018-08-16 07:30;59,95
2018-08-16 07:45;62,6
2018-08-16 08:00;61,15
2018-08-16 08:15;61,1
2018-08-16 08:30;63,2
2018-08-16 08:45;64,1
2018-08-16 09:00;67,1
2018-08-16 09:15;65,9
2018-08-16 09:30;68,5
2018-08-16 09:45;68
2018-08-16 10:00;68,95
2018-08-16 10:15;68,1
2018-08-16 10:30;70,95
2018-08-16 10:45;70,15
2018-08-16 11:00;72,7
2018-08-16 11:15;74,25
2018-08-16 11:30;75,6
2018-08-16 11:45;76,7
2018-08-16 12:00;74,45
2018-08-16 12:15;75,55
2018-08-16 12:30;74,85
2018-08-16 12:45;75,5
2018-08-16 13:00;74,25
2018-08-16 13:15;75,1
2018-08-16 13:30;73,6
2018-08-16 13:45;72,65
2018-08-16 14:00;70,25
2018-08-16 14:15;70,95
2018-08-16 14:30;72,55
2018-08-16 14:45;71,4
2018-08-16 15:00;71,25
2018-08-16 15:15;71,65
2018-08-16 15:30;73,05
2018-08-16 15:45;72,1
2018-08-16 16:00;74,05
2018-08-16 16:15;72,85
2018-08-16 16:30;74
2018-08-16 16:45;72,3
2018-08-16 17:00;73,55
2018-08-16 17:15;73,65
2018-08-16 17:30;71,05
2018-08-16 17:45;72,55
2018-08-16 18:00;69,8
2018-08-16 18:15;70,05
2018-08-16 18:30;71,25
2018-08-16 18:45;70,85
2018-08-16 19:00;70,8
2018-08-16 19:15;70,6
2018-08-16 19:30;74,7
2018-08-16 19:45;73,8
2018-08-16 20:00;74,2
2018-08-16 20:15;73,8
2018-08-16 20:30;77,5
2018-08-16 20:45;79,8
2018-08-16 21:00;80
2018-08-16 21:15;79,4
2018-08-16 21:30;77,6
2018-08-16 21:45;79
2018-08-16 22:00;77
2018-08-16 22:15;77
2018-08-16 22:30;75,9
2018-08-16 22:45;75,7
2018-08-16 23:00;80,8
2018-08-16 23:15;76,7
2018-08-16 23:30;78,65
2018-08-16 23:45;83,05
2018-08-17 00:00;72,85
2018-08-17 00:15;74,15
2018-08-17 00:30;74,15
2018-08-17 00:45;74,7
2018-08-17 01:00;73
2018-08-17 01:15;73,9
2018-08-17 01:30;72,45
2018-08-17 01:45;73,3
2018-08-17 02:00;72,1
2018-08-17 02:15;72,95
2018-08-17 02:30;72,55
2018-08-17 02:45;72,3
2018-08-17 03:00;71,95
2018-08-17 03:15;72
2018-08-17 03:30;72,65
2018-08-17 03:45;72,85
2018-08-17 04:00;73,65
2018-08-17 04:15;72,35
2018-08-17 04:30;73,95
2018-08-17 04:45;72,1
2018-08-17 05:00;73,4
2018-08-17 05:15;71,5
2018-08-17 05:30;71,9
2018-08-17 05:45;73,6
2018-08-17 06:00;71,2
2018-08-17 06:15;71,3
2018-08-17 06:30;70
2018-08-17 06:45;68,45
2018-08-17 07:00;64,8
2018-08-17 07:15;64,4
2018-08-17 07:30;61,6
2018-08-17 07:45;63,15
2018-08-17 08:00;62,1
2018-08-17 08:15;64,1
2018-08-17 08:30;64,6
2018-08-17 08:45;65,45
2018-08-17 09:00;64,95
2018-08-17 09:15;65,85
2018-08-17 09:30;65,25
2018-08-17 09:45;68,25
2018-08-17 10:00;67,95
2018-08-17 10:15;70,5
2018-08-17 10:30;70,6
2018-08-17 10:45;76,8
2018-08-17 11:00;76,55
2018-08-17 11:15;75,85
2018-08-17 11:30;77,15
2018-08-17 11:45;76,7
2018-08-17 12:00;78,4
2018-08-17 12:15;78,25
2018-08-17 12:30;78,7
2018-08-17 12:45;79,75
2018-08-17 13:00;76,9
2018-08-17 13:15;78
2018-08-17 13:30;75,15
2018-08-17 13:45;77,7
2018-08-17 14:00;76,4
2018-08-17 14:15;77,5
2018-08-17 14:30;75,95
2018-08-17 14:45;76,85
2018-08-17 15:00;74,9
2018-08-17 15:15;75,25
2018-08-17 15:30;75,05
2018-08-17 15:45;73,5
2018-08-17 16:00;75,7
2018-08-17 16:15;76,8
2018-08-17 16:30;76,05
2018-08-17 16:45;77,85
2018-08-17 17:00;74,3
2018-08-17 17:15;75,45
2018-08-17 17:30;71,85
2018-08-17 17:45;74,2
2018-08-17 18:00;73,55
2018-08-17 18:15;73,7
2018-08-17 18:30;75,05
2018-08-17 18:45;74,6
2018-08-17 19:00;74,15
2018-08-17 19:15;71,65
2018-08-17 19:30;75,5
2018-08-17 19:45;76,55
2018-08-17 20:00;81,4
2018-08-17 20:15;80,2
2018-08-17 20:30;82,65
2018-08-17 20:45;83,85
2018-08-17 21:00;83,8
2018-08-17 21:15;82,15
2018-08-17 21:30;84,2
2018-08-17 21:45;82,5
2018-08-17 22:00;84,8
2018-08-17 22:15;79,7
2018-08-17 22:30;78,8
2018-08-17 22:45;75,2
2018-08-17 23:00;83,9
2018-08-17 23:15;79,8
2018-08-17 23:30;82,1
2018-08-17 23:45;86,25
2018-08-18 00:00;76,1
2018-08-18 00:15;77,6
2018-08-18 00:30;75,95
2018-08-18 00:45;77,15
2018-08-18 01:00;75
2018-08-18 01:15;77,05
2018-08-18 01:30;74,3
2018-08-18 01:45;76,4
2018-08-18 02:00;74,5
2018-08-18 02:15;74,7
2018-08-18 02:30;75,5
2018-08-18 02:45;74,55
2018-08-18 03:00;74,7
2018-08-18 03:15;73,6
2018-08-18 03:30;75,05
2018-08-18 03:45;76,35
2018-08-18 04:00;73,2
2018-08-18 04:15;76,5
2018-08-18 04:30;75,4
2018-08-18 04:45;75,65
2018-08-18 05:00;75,15
2018-08-18 05:15;75,55
2018-08-18 05:30;22,3
2018-08-18 05:45;20,5
2018-08-18 06:00;19,7
2018-08-18 06:15;19,45
2018-08-18 06:30;18,85
2018-08-18 06:45;19,25
2018-08-18 07:00;18,35
2018-08-18 07:15;17,9
2018-08-18 07:30;17,95
2018-08-18 07:45;18,25
2018-08-18 08:00;18,1
2018-08-18 08:15;19,45
2018-08-18 08:30;18,9
2018-08-18 08:45;19,8
2018-08-18 09:00;18,8
2018-08-18 09:15;19,85
2018-08-18 09:30;20,85
2018-08-18 09:45;20,95
2018-08-18 10:00;20,7
2018-08-18 10:15;20,95
2018-08-18 10:30;20,45
2018-08-18 10:45;21,15
2018-08-18 11:00;21,05
2018-08-18 11:15;21,3
2018-08-18 11:30;21,05
2018-08-18 11:45;21,8
2018-08-18 12:00;28,95
2018-08-18 12:15;72,6
2018-08-18 12:30;73,6
2018-08-18 12:45;71,3
2018-08-18 13:00;73,55
2018-08-18 13:15;71,45
2018-08-18 13:30;72,3
2018-08-18 13:45;71,4
2018-08-18 14:00;72
2018-08-18 14:15;74,25
2018-08-18 14:30;73,8
2018-08-18 14:45;73,25
2018-08-18 15:00;54,25
2018-08-18 15:15;24,55
2018-08-18 15:30;24,2
2018-08-18 15:45;25,3
2018-08-18 16:00;25,4
2018-08-18 16:15;25,1
2018-08-18 16:30;25,55
2018-08-18 16:45;25,9
2018-08-18 17:00;25,55
2018-08-18 17:15;25,25
2018-08-18 17:30;25,35
2018-08-18 17:45;26,75
2018-08-18 18:00;25,55
2018-08-18 18:15;25,35
2018-08-18 18:30;25,5
2018-08-18 18:45;26,05
2018-08-18 19:00;25,55
2018-08-18 19:15;26,15
2018-08-18 19:30;25,65
2018-08-18 19:45;25,3
2018-08-18 20:00;25,95
2018-08-18 20:15;26,45
2018-08-18 20:30;26,85
2018-08-18 20:45;27,55
2018-08-18 21:00;28,5
2018-08-18 21:15;29,6
2018-08-18 21:30;27,7
2018-08-18 21:45;25,75
2018-08-18 22:00;24,7
2018-08-18 22:15;24,45
2018-08-18 22:30;24,3
2018-08-18 22:45;23,6
2018-08-18 23:00;29,45
2018-08-18 23:15;25,5
2018-08-18 23:30;26,75
2018-08-18 23:45;30,15
2018-08-19 00:00;22,1
2018-08-19 00:15;22,35
2018-08-19 00:30;22,25
2018-08-19 00:45;22,45
2018-08-19 01:00;27,05
2018-08-19 01:15;38,5
2018-08-19 01:30;35,8
2018-08-19 01:45;37,5
2018-08-19 02:00;36,4
2018-08-19 02:15;37,75
2018-08-19 02:30;36,85
2018-08-19 02:45;36,8
2018-08-19 03:00;36,4
2018-08-19 03:15;35,95
2018-08-19 03:30;37,1
2018-08-19 03:45;37,45
2018-08-19 04:00;37,7
2018-08-19 04:15;37,65
2018-08-19 04:30;37,85
2018-08-19 04:45;37,9
2018-08-19 05:00;37,65
2018-08-19 05:15;38,15
2018-08-19 05:30;37,85
2018-08-19 05:45;37,75
2018-08-19 06:00;37,2
2018-08-19 06:15;34,2
2018-08-19 06:30;34,05
2018-08-19 06:45;33,3
2018-08-19 07:00;31,65
2018-08-19 07:15;32,05
2018-08-19 07:30;30,35
2018-08-19 07:45;30,65
2018-08-19 08:00;30
2018-08-19 08:15;30
2018-08-19 08:30;31,25
2018-08-19 08:45;32
2018-08-19 09:00;33,4
2018-08-19 09:15;31,85
2018-08-19 09:30;32,65
2018-08-19 09:45;32,8
2018-08-19 10:00;32,4
2018-08-19 10:15;33,35
2018-08-19 10:30;32,7
2018-08-19 10:45;34,15
2018-08-19 11:00;32,5
2018-08-19 11:15;32,2
2018-08-19 11:30;31,6
2018-08-19 11:45;32,7
2018-08-19 12:00;33,65
2018-08-19 12:15;35,15
2018-08-19 12:30;35,85
2018-08-19 12:45;34,65
2018-08-19 13:00;35,3
2018-08-19 13:15;35,1
2018-08-19 13:30;34,45
2018-08-19 13:45;34,75
2018-08-19 14:00;35,45
2018-08-19 14:15;37,3
2018-08-19 14:30;36,55
2018-08-19 14:45;37,6
2018-08-19 15:00;37,65
2018-08-19 15:15;37,95
2018-08-19 15:30;37
2018-08-19 15:45;36,95
2018-08-19 16:00;37,6
2018-08-19 16:15;39,95
2018-08-19 16:30;40,75
2018-08-19 16:45;38,3
2018-08-19 17:00;37,5
2018-08-19 17:15;36,35
2018-08-19 17:30;36,8
2018-08-19 17:45;37,4
2018-08-19 18:00;36,5
2018-08-19 18:15;37,6
2018-08-19 18:30;35,6
2018-08-19 18:45;71,3
2018-08-19 19:00;77,4
2018-08-19 19:15;77,05
2018-08-19 19:30;79,75
2018-08-19 19:45;83,25
2018-08-19 20:00;81,55
2018-08-19 20:15;81,4
2018-08-19 20:30;83,3
2018-08-19 20:45;85,15
2018-08-19 21:00;84,8
2018-08-19 21:15;85,5
2018-08-19 21:30;84,25
2018-08-19 21:45;86,65
2018-08-19 22:00;85,1
2018-08-19 22:15;81,45
2018-08-19 22:30;80,75
2018-08-19 22:45;78,75
2018-08-19 23:00;85
2018-08-19 23:15;79
2018-08-19 23:30;83,15
2018-08-19 23:45;85,35

